Hourly Data Report for October 05, 2016

All times are specified in Local Standard Time (LST). Add 1 hour to adjust for Daylight Saving Time where and when it is observed.

KUGAARUK CLIMATE
NUNAVUT

68°32'15.060" N
89°47'47.020" W
15.80 m
2303094
71407
NBB

Download Data

Hourly Data (October 2016)
Hourly Data Report for October 5, 2016
Temp Definition
°C
Dew Point Temp Definition
°C
Rel Hum Definition
%
Wind Dir Definition
10's deg

Wind Spd Definition
km/h
Visibility Definition
km
Stn Press Definition
kPa
Hmdx Definition


Wind Chill Definition


Weather Definition


TIME
00:00 -5.1 -7.9 81 32 20   101.28   -12 LegendNANA
01:00 -5.2 -7.9 81 32 25   101.35   -13 LegendNANA
02:00 -5.5 -8.0 83 32 14   101.45   -11 LegendNANA
03:00 -4.8 -7.2 84 31 17   101.50   -11 LegendNANA
04:00 -4.2 -6.5 84 31 13   101.54   -9 LegendNANA
05:00 -3.5 -5.8 84 32 18   101.58   -9 LegendNANA
06:00 -4.0 -6.2 85 35 19   101.65   -10 LegendNANA
07:00 -3.6 -6.2 83 35 15   101.69   -9 LegendNANA
08:00 -3.5 -6.4 80 32 17   101.72   -9 LegendNANA
09:00 -3.7 -7.4 76 29 14   101.79   -9 LegendNANA
10:00 -3.4 -7.4 74 30 14   101.83   -8 LegendNANA
11:00 -2.9 -7.3 72 20 4   101.85   -4 LegendNANA
12:00 -1.9 -5.0 79 29 10   101.89   -6 LegendNANA
13:00 -0.9 -2.5 89 29 15   101.89   -6 LegendNANA
14:00 -0.2 -2.5 85 28 18   101.88   -5 LegendNANA
15:00 -0.1 -2.7 82 29 18   101.91   -5 LegendNANA
16:00 -0.1 -2.4 85 28 18   101.93   -5 LegendNANA
17:00 -0.2 -1.9 88 27 15   101.96   -5 LegendNANA
18:00 -0.3 -1.8 89 28 18   101.95   -5 LegendNANA
19:00 -0.6 -2.5 87 30 19   101.94   -6 LegendNANA
20:00 -0.8 -3.2 84 30 21   101.96   -6 LegendNANA
21:00 -1.3 -3.7 84 29 28   101.96   -8 LegendNANA
22:00 -1.4 -4.2 81 31 21   101.97   -7 LegendNANA
23:00 -1.3 -4.1 81 30 24   101.96   -7 LegendNANA

Notes on Data Quality.

Legend

  • E = Estimated
  • M = Missing
  • NA = Not Available
  • ‡ = Partner data that is not subject to review by the National Climate Archives
Date modified: